Hourly Data Report for October 02, 2017

All times are specified in Local Standard Time (LST). Add 1 hour to adjust for Daylight Saving Time where and when it is observed.

BRIER ISLAND
NOVA SCOTIA

44°17'09.000" N
66°20'48.000" W
15.80 m
8200604
71988
WVU

Download Data

Hourly Data (October 2017)
Hourly Data Report for October 2, 2017
Temp Definition
°C
Dew Point Temp Definition
°C
Rel Hum Definition
%
Wind Dir Definition
10's deg

Wind Spd Definition
km/h
Visibility Definition
km
Stn Press Definition
kPa
Hmdx Definition


Wind Chill Definition


Weather Definition


TIME
00:00 12.1 10.1 87 28 28   101.89     LegendNANA
01:00 12.3 9.1 81 30 31   101.88     LegendNANA
02:00 12.6 8.4 75 31 31   101.87     LegendNANA
03:00 12.7 8.4 75 32 32   101.88     LegendNANA
04:00 12.4 8.8 78 33 29   101.94     LegendNANA
05:00 12.4 8.7 78 35 23   102.06     LegendNANA
06:00 12.0 8.8 81 35 15   102.15     LegendNANA
07:00 12.3 8.5 78 35 23   102.25     LegendNANA
08:00 12.6 9.1 79 35 23   102.34     LegendNANA
09:00 12.8 7.8 71 36 24   102.41     LegendNANA
10:00 13.0 7.7 70 34 28   102.47     LegendNANA
11:00 12.6 7.0 69 33 31   102.50     LegendNANA
12:00 12.3 7.7 74 35 35   102.53     LegendNANA
13:00 12.7 7.2 69 36 28   102.55     LegendNANA
14:00 12.8 5.3 60 36 26   102.60     LegendNANA
15:00 12.6 4.5 58 1 29   102.64     LegendNANA
16:00 12.4 2.7 52 2 35   102.68     LegendNANA
17:00 12.3 3.8 56 1 32   102.77     LegendNANA
18:00 11.6 5.0 64 4 22   102.89     LegendNANA
19:00 10.9 5.2 68 3 17   103.01     LegendNANA
20:00 10.6 5.6 71 3 15   103.11     LegendNANA
21:00 10.0 5.1 71 6 17   103.18     LegendNANA
22:00 9.6 4.4 70 8 22   103.20     LegendNANA
23:00 9.2 4.0 70 8 22   103.23     LegendNANA

Notes on Data Quality.

Legend

  • E = Estimated
  • M = Missing
  • NA = Not Available
  • ‡ = Partner data that is not subject to review by the National Climate Archives
Date modified: